Time,TemperatureF,DewpointF,PressureIn,WindDirection,WindDirectionDegrees,WindSpeedMPH,WindSpeedGustMPH,Humidity,HourlyPrecipIn,Conditions,Clouds,dailyrainin,SoftwareType,DateUTC
2013-02-04 00:04:00,44.3,42.1,30.27,SW,221,0.0,0.0,92,0.00,,,0.10,Wunderground v.1.15,2013-02-04 08:04:00,
2013-02-04 00:09:00,44.3,42.1,30.27,SW,220,0.0,0.0,92,0.00,,,0.10,Wunderground v.1.15,2013-02-04 08:09:00,
2013-02-04 00:15:00,44.2,42.0,30.27,SW,220,0.0,0.0,92,0.00,,,0.10,Wunderground v.1.15,2013-02-04 08:15:00,
2013-02-04 00:21:00,44.2,42.0,30.27,SW,219,0.0,1.0,92,0.00,,,0.10,Wunderground v.1.15,2013-02-04 08:21:00,
2013-02-04 00:26:00,44.2,42.0,30.26,SW,218,0.0,1.0,92,0.00,,,0.10,Wunderground v.1.15,2013-02-04 08:26:00,
2013-02-04 00:31:00,44.2,42.0,30.26,SW,215,0.0,0.0,92,0.00,,,0.10,Wunderground v.1.15,2013-02-04 08:31:00,
2013-02-04 00:37:00,44.2,42.0,30.26,SSW,213,0.0,1.0,92,0.00,,,0.10,Wunderground v.1.15,2013-02-04 08:37:00,
2013-02-04 00:42:00,44.2,42.0,30.26,SSW,213,1.0,1.0,92,0.00,,,0.10,Wunderground v.1.15,2013-02-04 08:42:00,
2013-02-04 00:48:00,44.2,42.0,30.26,SSW,213,0.0,1.0,92,0.00,,,0.10,Wunderground v.1.15,2013-02-04 08:48:00,
2013-02-04 00:53:00,44.1,41.9,30.26,SSW,207,1.0,2.0,92,0.00,,,0.10,Wunderground v.1.15,2013-02-04 08:53:00,
2013-02-04 00:58:00,44.2,42.0,30.27,SSW,207,0.0,2.0,92,0.00,,,0.10,Wunderground v.1.15,2013-02-04 08:58:00,
2013-02-04 01:04:00,44.2,42.0,30.26,SSW,207,0.0,1.0,92,0.00,,,0.10,Wunderground v.1.15,2013-02-04 09:04:00,
2013-02-04 01:09:00,44.3,42.1,30.27,SSW,206,0.0,0.0,92,0.00,,,0.10,Wunderground v.1.15,2013-02-04 09:09:00,
2013-02-04 01:15:00,44.2,42.0,30.27,SSW,206,0.0,0.0,92,0.00,,,0.10,Wunderground v.1.15,2013-02-04 09:15:00,
2013-02-04 01:20:00,44.2,42.0,30.27,SSW,206,0.0,0.0,92,0.00,,,0.10,Wunderground v.1.15,2013-02-04 09:20:00,
2013-02-04 01:26:00,44.2,42.0,30.27,SSW,206,0.0,0.0,92,0.00,,,0.10,Wunderground v.1.15,2013-02-04 09:26:00,
2013-02-04 01:31:00,44.2,42.0,30.26,SSW,206,0.0,0.0,92,0.00,,,0.10,Wunderground v.1.15,2013-02-04 09:31:00,
2013-02-04 01:37:00,44.2,42.0,30.26,SSW,207,1.0,1.0,92,0.00,,,0.10,Wunderground v.1.15,2013-02-04 09:37:00,
2013-02-04 01:42:00,44.2,41.7,30.26,SSW,208,0.0,2.0,91,0.00,,,0.10,Wunderground v.1.15,2013-02-04 09:42:00,
2013-02-04 01:48:00,44.2,41.7,30.27,SSW,212,0.0,2.0,91,0.00,,,0.10,Wunderground v.1.15,2013-02-04 09:48:00,
2013-02-04 01:53:00,44.3,41.8,30.27,SSW,212,2.0,2.0,91,0.00,,,0.10,Wunderground v.1.15,2013-02-04 09:53:00,
2013-02-04 01:59:00,44.3,41.8,30.26,SSW,207,0.0,2.0,91,0.00,,,0.10,Wunderground v.1.15,2013-02-04 09:59:00,
2013-02-04 02:04:00,44.3,41.8,30.26,SSW,207,0.0,3.0,91,0.00,,,0.10,Wunderground v.1.15,2013-02-04 10:04:00,
2013-02-04 02:09:00,44.3,41.8,30.25,SSW,205,0.0,3.0,91,0.00,,,0.10,Wunderground v.1.15,2013-02-04 10:09:00,
2013-02-04 02:14:00,44.4,41.9,30.25,SSW,196,0.0,3.0,91,0.00,,,0.10,Wunderground v.1.15,2013-02-04 10:14:00,
2013-02-04 02:19:00,44.4,41.9,30.26,SSW,196,0.0,3.0,91,0.00,,,0.10,Wunderground v.1.15,2013-02-04 10:19:00,
2013-02-04 02:24:00,44.4,41.9,30.26,SSW,196,0.0,3.0,91,0.00,,,0.00,Wunderground v.1.15,2013-02-04 10:24:00,
2013-02-04 02:29:00,44.3,41.8,30.26,SSW,195,2.0,3.0,91,0.00,,,0.00,Wunderground v.1.15,2013-02-04 10:29:00,
2013-02-04 02:34:00,44.3,41.8,30.26,SSW,194,0.0,1.0,91,0.00,,,0.00,Wunderground v.1.15,2013-02-04 10:34:00,
2013-02-04 02:39:00,44.3,41.8,30.26,SSW,197,0.0,5.0,91,0.00,,,0.00,Wunderground v.1.15,2013-02-04 10:39:00,
2013-02-04 02:44:00,44.3,41.8,30.26,SSW,197,0.0,2.0,91,0.00,,,0.00,Wunderground v.1.15,2013-02-04 10:44:00,
2013-02-04 02:49:00,44.3,41.8,30.26,SSW,193,0.0,2.0,91,0.00,,,0.00,Wunderground v.1.15,2013-02-04 10:49:00,
2013-02-04 02:54:00,44.3,41.8,30.26,SSW,193,0.0,0.0,91,0.00,,,0.00,Wunderground v.1.15,2013-02-04 10:54:00,
2013-02-04 02:59:00,44.3,41.8,30.26,SSW,194,3.0,3.0,91,0.00,,,0.00,Wunderground v.1.15,2013-02-04 10:59:00,
2013-02-04 03:04:00,44.3,41.8,30.26,SSW,202,0.0,5.0,91,0.00,,,0.00,Wunderground v.1.15,2013-02-04 11:04:00,
2013-02-04 03:09:00,44.3,41.8,30.26,South,177,1.0,5.0,91,0.00,,,0.00,Wunderground v.1.15,2013-02-04 11:09:00,
2013-02-04 03:14:00,44.3,41.8,30.25,South,186,1.0,3.0,91,0.00,,,0.00,Wunderground v.1.15,2013-02-04 11:14:00,
2013-02-04 03:20:00,44.3,41.8,30.25,South,186,0.0,0.0,91,0.00,,,0.00,Wunderground v.1.15,2013-02-04 11:20:00,
2013-02-04 03:24:00,44.3,41.8,30.26,South,186,0.0,0.0,91,0.00,,,0.00,Wunderground v.1.15,2013-02-04 11:24:00,
2013-02-04 03:30:00,44.2,41.7,30.25,South,188,0.0,1.0,91,0.00,,,0.00,Wunderground v.1.15,2013-02-04 11:30:00,
2013-02-04 03:35:00,44.2,41.7,30.25,South,184,2.0,4.0,91,0.00,,,0.00,Wunderground v.1.15,2013-02-04 11:35:00,
2013-02-04 03:40:00,44.2,41.7,30.26,South,184,0.0,1.0,91,0.00,,,0.00,Wunderground v.1.15,2013-02-04 11:40:00,
2013-02-04 03:45:00,44.2,41.7,30.26,South,188,0.0,3.0,91,0.00,,,0.00,Wunderground v.1.15,2013-02-04 11:45:00,
2013-02-04 03:50:00,44.2,41.7,30.26,SSW,192,1.0,2.0,91,0.00,,,0.00,Wunderground v.1.15,2013-02-04 11:50:00,
2013-02-04 03:55:00,44.2,41.7,30.26,South,189,0.0,2.0,91,0.00,,,0.00,Wunderground v.1.15,2013-02-04 11:55:00,
2013-02-04 04:00:00,44.2,41.7,30.25,SSW,192,0.0,1.0,91,0.00,,,0.00,Wunderground v.1.15,2013-02-04 12:00:00,
2013-02-04 04:05:00,44.2,41.7,30.25,SSW,192,1.0,3.0,91,0.00,,,0.00,Wunderground v.1.15,2013-02-04 12:05:00,
2013-02-04 04:10:00,44.2,41.7,30.25,South,180,0.0,1.0,91,0.00,,,0.00,Wunderground v.1.15,2013-02-04 12:10:00,
2013-02-04 04:15:00,44.2,41.7,30.25,South,179,0.0,3.0,91,0.00,,,0.00,Wunderground v.1.15,2013-02-04 12:15:00,
2013-02-04 04:20:00,44.2,41.7,30.24,South,178,0.0,0.0,91,0.00,,,0.00,Wunderground v.1.15,2013-02-04 12:20:00,
2013-02-04 04:25:00,44.2,41.7,30.24,South,182,0.0,4.0,91,0.00,,,0.00,Wunderground v.1.15,2013-02-04 12:25:00,
2013-02-04 04:30:00,44.1,41.6,30.24,South,180,0.0,0.0,91,0.00,,,0.00,Wunderground v.1.15,2013-02-04 12:30:00,
2013-02-04 04:35:00,44.1,41.6,30.24,SSE,164,0.0,5.0,91,0.00,,,0.00,Wunderground v.1.15,2013-02-04 12:35:00,
2013-02-04 04:40:00,44.1,41.6,30.24,South,173,0.0,4.0,91,0.00,,,0.00,Wunderground v.1.15,2013-02-04 12:40:00,
2013-02-04 04:45:00,44.0,41.5,30.24,South,177,2.0,4.0,91,0.00,,,0.00,Wunderground v.1.15,2013-02-04 12:45:00,
2013-02-04 04:50:00,44.0,41.5,30.24,South,179,0.0,1.0,91,0.00,,,0.00,Wunderground v.1.15,2013-02-04 12:50:00,
2013-02-04 04:55:00,44.0,41.3,30.24,SSE,154,0.0,4.0,90,0.00,,,0.00,Wunderground v.1.15,2013-02-04 12:55:00,
2013-02-04 05:00:00,44.0,41.3,30.24,South,169,1.0,4.0,90,0.00,,,0.00,Wunderground v.1.15,2013-02-04 13:00:00,
2013-02-04 05:05:00,44.0,41.3,30.24,South,174,0.0,4.0,90,0.00,,,0.00,Wunderground v.1.15,2013-02-04 13:05:00,
2013-02-04 05:10:00,44.0,41.3,30.24,South,176,0.0,1.0,90,0.00,,,0.00,Wunderground v.1.15,2013-02-04 13:10:00,
2013-02-04 05:15:00,44.0,41.3,30.24,South,182,0.0,4.0,90,0.00,,,0.00,Wunderground v.1.15,2013-02-04 13:15:00,
2013-02-04 05:20:00,44.1,41.4,30.24,South,171,0.0,4.0,90,0.00,,,0.00,Wunderground v.1.15,2013-02-04 13:20:00,
2013-02-04 05:25:00,44.1,41.4,30.24,South,187,2.0,4.0,90,0.00,,,0.00,Wunderground v.1.15,2013-02-04 13:25:00,
2013-02-04 05:30:00,44.1,41.1,30.24,SSW,194,0.0,2.0,89,0.00,,,0.00,Wunderground v.1.15,2013-02-04 13:30:00,
2013-02-04 05:35:00,44.2,41.2,30.24,SSW,192,0.0,3.0,89,0.00,,,0.00,Wunderground v.1.15,2013-02-04 13:35:00,
2013-02-04 05:40:00,44.2,41.2,30.24,SSW,192,0.0,0.0,89,0.00,,,0.00,Wunderground v.1.15,2013-02-04 13:40:00,
2013-02-04 05:45:00,44.2,41.2,30.24,SSW,192,0.0,0.0,89,0.00,,,0.00,Wunderground v.1.15,2013-02-04 13:45:00,
2013-02-04 05:50:00,44.3,41.3,30.24,South,190,0.0,0.0,89,0.00,,,0.00,Wunderground v.1.15,2013-02-04 13:50:00,
2013-02-04 05:55:00,44.3,41.3,30.24,South,190,0.0,1.0,89,0.00,,,0.00,Wunderground v.1.15,2013-02-04 13:55:00,
2013-02-04 06:00:00,44.3,41.3,30.24,South,190,0.0,0.0,89,0.00,,,0.00,Wunderground v.1.15,2013-02-04 14:00:00,
2013-02-04 06:06:00,44.3,41.3,30.24,South,190,0.0,0.0,89,0.00,,,0.00,Wunderground v.1.15,2013-02-04 14:06:00,
2013-02-04 06:11:00,44.3,41.3,30.24,South,190,0.0,0.0,89,0.00,,,0.00,Wunderground v.1.15,2013-02-04 14:11:00,
2013-02-04 06:16:00,44.3,41.3,30.23,South,184,0.0,2.0,89,0.00,,,0.00,Wunderground v.1.15,2013-02-04 14:16:00,
2013-02-04 06:21:00,44.3,41.3,30.24,South,184,0.0,0.0,89,0.00,,,0.00,Wunderground v.1.15,2013-02-04 14:21:00,
2013-02-04 06:26:00,44.2,41.2,30.23,South,183,0.0,2.0,89,0.00,,,0.00,Wunderground v.1.15,2013-02-04 14:26:00,
2013-02-04 06:31:00,44.2,41.2,30.23,South,182,0.0,2.0,89,0.00,,,0.00,Wunderground v.1.15,2013-02-04 14:31:00,
2013-02-04 06:36:00,44.2,41.2,30.23,South,184,0.0,4.0,89,0.00,,,0.00,Wunderground v.1.15,2013-02-04 14:36:00,
2013-02-04 06:41:00,44.2,41.2,30.23,South,182,0.0,0.0,89,0.00,,,0.00,Wunderground v.1.15,2013-02-04 14:41:00,
2013-02-04 06:46:00,44.2,41.2,30.23,South,182,0.0,2.0,89,0.00,,,0.00,Wunderground v.1.15,2013-02-04 14:46:00,
2013-02-04 06:51:00,44.2,41.2,30.22,South,182,0.0,4.0,89,0.00,,,0.00,Wunderground v.1.15,2013-02-04 14:51:00,
2013-02-04 06:56:00,44.2,41.2,30.22,South,182,0.0,4.0,89,0.00,,,0.00,Wunderground v.1.15,2013-02-04 14:56:00,
2013-02-04 07:01:00,44.2,41.2,30.22,South,180,1.0,4.0,89,0.00,,,0.00,Wunderground v.1.15,2013-02-04 15:01:00,
2013-02-04 07:06:00,44.1,41.1,30.21,South,185,1.0,4.0,89,0.00,,,0.00,Wunderground v.1.15,2013-02-04 15:06:00,
2013-02-04 07:11:00,44.1,41.1,30.22,South,185,0.0,3.0,89,0.00,,,0.00,Wunderground v.1.15,2013-02-04 15:11:00,
2013-02-04 07:16:00,44.2,41.2,30.22,South,186,0.0,3.0,89,0.00,,,0.00,Wunderground v.1.15,2013-02-04 15:16:00,
2013-02-04 07:21:00,44.1,41.1,30.23,South,188,2.0,2.0,89,0.00,,,0.00,Wunderground v.1.15,2013-02-04 15:21:00,
2013-02-04 07:26:00,44.2,41.2,30.23,South,188,0.0,3.0,89,0.00,,,0.00,Wunderground v.1.15,2013-02-04 15:26:00,
2013-02-04 07:31:00,44.2,41.2,30.23,South,190,1.0,2.0,89,0.00,,,0.00,Wunderground v.1.15,2013-02-04 15:31:00,
2013-02-04 07:36:00,44.2,41.2,30.24,South,190,0.0,2.0,89,0.00,,,0.00,Wunderground v.1.15,2013-02-04 15:36:00,
2013-02-04 07:41:00,44.2,41.2,30.23,South,190,0.0,0.0,89,0.00,,,0.00,Wunderground v.1.15,2013-02-04 15:41:00,
2013-02-04 07:46:00,44.2,41.2,30.23,South,190,0.0,0.0,89,0.00,,,0.00,Wunderground v.1.15,2013-02-04 15:46:00,
2013-02-04 07:51:00,44.2,41.2,30.23,South,190,0.0,0.0,89,0.00,,,0.00,Wunderground v.1.15,2013-02-04 15:51:00,
2013-02-04 07:56:00,44.3,41.3,30.23,South,190,0.0,1.0,89,0.00,,,0.00,Wunderground v.1.15,2013-02-04 15:56:00,
2013-02-04 08:01:00,44.3,41.3,30.22,South,188,0.0,2.0,89,0.00,,,0.00,Wunderground v.1.15,2013-02-04 16:01:00,
2013-02-04 08:06:00,44.3,41.3,30.23,South,187,0.0,2.0,89,0.00,,,0.00,Wunderground v.1.15,2013-02-04 16:06:00,
2013-02-04 08:11:00,44.3,41.3,30.23,South,187,0.0,3.0,89,0.00,,,0.00,Wunderground v.1.15,2013-02-04 16:11:00,
2013-02-04 08:16:00,44.3,41.3,30.23,South,187,0.0,3.0,89,0.00,,,0.00,Wunderground v.1.15,2013-02-04 16:16:00,
2013-02-04 08:21:00,44.4,41.4,30.23,South,185,0.0,2.0,89,0.00,,,0.00,Wunderground v.1.15,2013-02-04 16:21:00,
2013-02-04 08:26:00,44.4,41.4,30.24,South,185,1.0,2.0,89,0.00,,,0.00,Wunderground v.1.15,2013-02-04 16:26:00,
2013-02-04 08:31:00,44.4,41.4,30.23,South,185,0.0,0.0,89,0.00,,,0.00,Wunderground v.1.15,2013-02-04 16:31:00,
2013-02-04 08:36:00,44.5,41.5,30.24,South,188,0.0,5.0,89,0.00,,,0.00,Wunderground v.1.15,2013-02-04 16:36:00,
2013-02-04 08:41:00,44.5,41.5,30.24,South,190,1.0,4.0,89,0.00,,,0.00,Wunderground v.1.15,2013-02-04 16:41:00,
2013-02-04 08:46:00,44.6,41.6,30.24,South,188,0.0,4.0,89,0.00,,,0.00,Wunderground v.1.15,2013-02-04 16:46:00,
2013-02-04 08:51:00,44.6,41.6,30.24,South,179,0.0,3.0,89,0.00,,,0.00,Wunderground v.1.15,2013-02-04 16:51:00,
2013-02-04 08:56:00,44.7,41.7,30.23,South,173,0.0,4.0,89,0.00,,,0.00,Wunderground v.1.15,2013-02-04 16:56:00,
2013-02-04 09:01:00,44.8,41.8,30.23,SSE,166,1.0,3.0,89,0.00,,,0.00,Wunderground v.1.15,2013-02-04 17:01:00,
2013-02-04 09:06:00,44.9,41.6,30.23,SSE,168,1.0,4.0,88,0.00,,,0.00,Wunderground v.1.15,2013-02-04 17:06:00,
2013-02-04 09:11:00,44.9,41.9,30.22,South,169,0.0,1.0,89,0.00,,,0.00,Wunderground v.1.15,2013-02-04 17:11:00,
2013-02-04 09:16:00,45.0,41.7,30.22,South,170,1.0,5.0,88,0.00,,,0.00,Wunderground v.1.15,2013-02-04 17:16:00,
2013-02-04 09:21:00,45.1,41.8,30.22,SSE,167,2.0,4.0,88,0.00,,,0.00,Wunderground v.1.15,2013-02-04 17:21:00,
2013-02-04 09:26:00,45.1,41.8,30.22,South,170,0.0,5.0,88,0.00,,,0.00,Wunderground v.1.15,2013-02-04 17:26:00,
2013-02-04 09:31:00,45.2,41.9,30.22,SSE,165,0.0,3.0,88,0.00,,,0.00,Wunderground v.1.15,2013-02-04 17:31:00,
2013-02-04 09:36:00,45.3,41.7,30.23,South,181,1.0,7.0,87,0.00,,,0.00,Wunderground v.1.15,2013-02-04 17:36:00,
2013-02-04 09:41:00,45.4,41.8,30.22,South,181,0.0,3.0,87,0.00,,,0.00,Wunderground v.1.15,2013-02-04 17:41:00,
2013-02-04 09:46:00,45.6,41.7,30.22,South,180,5.0,5.0,86,0.00,,,0.00,Wunderground v.1.15,2013-02-04 17:46:00,
2013-02-04 09:51:00,45.6,41.7,30.23,South,180,0.0,1.0,86,0.00,,,0.00,Wunderground v.1.15,2013-02-04 17:51:00,
2013-02-04 09:57:00,45.6,41.4,30.23,SSW,192,1.0,6.0,85,0.00,,,0.00,Wunderground v.1.15,2013-02-04 17:57:00,
2013-02-04 10:02:00,45.7,41.4,30.23,South,185,0.0,3.0,85,0.00,,,0.00,Wunderground v.1.15,2013-02-04 18:02:00,
2013-02-04 10:07:00,45.7,41.4,30.23,South,186,0.0,3.0,85,0.00,,,0.00,Wunderground v.1.15,2013-02-04 18:07:00,
2013-02-04 10:12:00,45.7,41.4,30.23,SSE,166,0.0,4.0,85,0.00,,,0.00,Wunderground v.1.15,2013-02-04 18:12:00,
2013-02-04 10:17:00,45.7,41.4,30.23,SSE,166,0.0,4.0,85,0.00,,,0.00,Wunderground v.1.15,2013-02-04 18:17:00,
2013-02-04 10:22:00,45.8,41.5,30.23,South,169,1.0,3.0,85,0.00,,,0.00,Wunderground v.1.15,2013-02-04 18:22:00,
2013-02-04 10:27:00,45.8,41.5,30.23,South,171,0.0,3.0,85,0.00,,,0.00,Wunderground v.1.15,2013-02-04 18:27:00,
2013-02-04 10:32:00,45.9,41.6,30.23,South,171,0.0,1.0,85,0.00,,,0.00,Wunderground v.1.15,2013-02-04 18:32:00,
2013-02-04 10:37:00,45.9,41.6,30.23,SSE,167,0.0,4.0,85,0.00,,,0.00,Wunderground v.1.15,2013-02-04 18:37:00,
2013-02-04 10:42:00,46.0,41.4,30.23,SSE,167,0.0,1.0,84,0.00,,,0.00,Wunderground v.1.15,2013-02-04 18:42:00,
2013-02-04 10:48:00,46.1,41.5,30.24,SSE,167,0.0,2.0,84,0.00,,,0.00,Wunderground v.1.15,2013-02-04 18:48:00,
2013-02-04 10:52:00,46.2,41.6,30.24,SSE,167,0.0,0.0,84,0.00,,,0.00,Wunderground v.1.15,2013-02-04 18:52:00,
2013-02-04 10:57:00,46.2,41.6,30.24,SSE,167,0.0,0.0,84,0.00,,,0.00,Wunderground v.1.15,2013-02-04 18:57:00,
2013-02-04 11:03:00,46.3,41.7,30.24,SSE,167,0.0,4.0,84,0.00,,,0.00,Wunderground v.1.15,2013-02-04 19:03:00,
2013-02-04 11:07:00,46.4,41.5,30.23,South,169,1.0,4.0,83,0.00,,,0.00,Wunderground v.1.15,2013-02-04 19:07:00,
2013-02-04 11:12:00,46.6,41.7,30.22,SSE,168,2.0,2.0,83,0.00,,,0.00,Wunderground v.1.15,2013-02-04 19:12:00,
2013-02-04 11:18:00,47.0,41.8,30.22,South,171,0.0,2.0,82,0.00,,,0.00,Wunderground v.1.15,2013-02-04 19:18:00,
2013-02-04 11:23:00,47.3,42.1,30.22,South,171,1.0,1.0,82,0.00,,,0.00,Wunderground v.1.15,2013-02-04 19:23:00,
2013-02-04 11:27:00,47.3,41.8,30.22,South,175,1.0,3.0,81,0.00,,,0.00,Wunderground v.1.15,2013-02-04 19:27:00,
2013-02-04 11:33:00,47.4,42.2,30.21,SSE,161,0.0,3.0,82,0.00,,,0.00,Wunderground v.1.15,2013-02-04 19:33:00,
2013-02-04 11:38:00,47.7,41.8,30.22,South,169,0.0,3.0,80,0.00,,,0.00,Wunderground v.1.15,2013-02-04 19:38:00,
2013-02-04 11:43:00,47.6,41.7,30.21,SSE,168,2.0,4.0,80,0.00,,,0.00,Wunderground v.1.15,2013-02-04 19:43:00,
2013-02-04 11:48:00,47.8,41.9,30.21,South,171,0.0,4.0,80,0.00,,,0.00,Wunderground v.1.15,2013-02-04 19:48:00,
2013-02-04 11:53:00,47.9,42.0,30.20,South,173,1.0,6.0,80,0.00,,,0.00,Wunderground v.1.15,2013-02-04 19:53:00,
2013-02-04 11:58:00,47.9,41.7,30.20,SSE,166,0.0,6.0,79,0.00,,,0.00,Wunderground v.1.15,2013-02-04 19:58:00,
2013-02-04 12:03:00,47.9,41.7,30.20,SSE,168,1.0,2.0,79,0.00,,,0.00,Wunderground v.1.15,2013-02-04 20:03:00,
2013-02-04 12:08:00,47.9,41.7,30.20,SSW,196,0.0,6.0,79,0.00,,,0.00,Wunderground v.1.15,2013-02-04 20:08:00,
2013-02-04 12:13:00,48.2,42.0,30.20,SSW,198,0.0,2.0,79,0.00,,,0.00,Wunderground v.1.15,2013-02-04 20:13:00,
2013-02-04 12:18:00,48.1,41.6,30.19,SSW,194,0.0,2.0,78,0.00,,,0.00,Wunderground v.1.15,2013-02-04 20:18:00,
2013-02-04 12:23:00,48.3,41.8,30.19,SSW,195,0.0,3.0,78,0.00,,,0.00,Wunderground v.1.15,2013-02-04 20:23:00,
2013-02-04 12:28:00,48.4,41.9,30.19,SSW,192,0.0,4.0,78,0.00,,,0.00,Wunderground v.1.15,2013-02-04 20:28:00,
2013-02-04 12:33:00,48.7,42.1,30.18,SSW,194,2.0,3.0,78,0.00,,,0.00,Wunderground v.1.15,2013-02-04 20:33:00,
2013-02-04 12:38:00,48.6,41.4,30.18,South,180,1.0,7.0,76,0.00,,,0.01,Wunderground v.1.15,2013-02-04 20:38:00,
2013-02-04 12:43:00,49.2,42.0,30.18,SSE,167,0.0,2.0,76,0.00,,,0.01,Wunderground v.1.15,2013-02-04 20:43:00,
2013-02-04 12:48:00,49.1,41.9,30.17,SSE,165,0.0,3.0,76,0.00,,,0.01,Wunderground v.1.15,2013-02-04 20:48:00,
2013-02-04 12:53:00,48.9,41.7,30.17,South,169,0.0,2.0,76,0.00,,,0.01,Wunderground v.1.15,2013-02-04 20:53:00,
2013-02-04 12:58:00,48.9,41.7,30.16,South,169,0.0,2.0,76,0.00,,,0.01,Wunderground v.1.15,2013-02-04 20:58:00,
2013-02-04 13:03:00,49.1,41.9,30.16,South,171,0.0,2.0,76,0.00,,,0.01,Wunderground v.1.15,2013-02-04 21:03:00,
2013-02-04 13:08:00,49.2,42.0,30.16,South,175,0.0,3.0,76,0.00,,,0.01,Wunderground v.1.15,2013-02-04 21:08:00,
2013-02-04 13:13:00,49.4,41.5,30.16,South,181,0.0,4.0,74,0.00,,,0.01,Wunderground v.1.15,2013-02-04 21:13:00,
2013-02-04 13:18:00,49.2,41.3,30.16,South,190,0.0,4.0,74,0.00,,,0.01,Wunderground v.1.15,2013-02-04 21:18:00,
2013-02-04 13:23:00,49.2,41.3,30.15,South,180,0.0,4.0,74,0.00,,,0.01,Wunderground v.1.15,2013-02-04 21:23:00,
2013-02-04 13:28:00,49.2,41.6,30.15,South,179,0.0,4.0,75,0.00,,,0.01,Wunderground v.1.15,2013-02-04 21:28:00,
2013-02-04 13:33:00,49.2,41.3,30.14,South,180,0.0,2.0,74,0.00,,,0.01,Wunderground v.1.15,2013-02-04 21:33:00,
2013-02-04 13:38:00,49.4,41.5,30.14,South,183,0.0,4.0,74,0.00,,,0.01,Wunderground v.1.15,2013-02-04 21:38:00,
2013-02-04 13:43:00,50.0,41.3,30.14,South,184,0.0,2.0,72,0.00,,,0.01,Wunderground v.1.15,2013-02-04 21:43:00,
2013-02-04 13:48:00,50.3,41.6,30.13,South,186,0.0,3.0,72,0.00,,,0.01,Wunderground v.1.15,2013-02-04 21:48:00,
2013-02-04 13:54:00,50.3,41.3,30.13,South,190,0.0,4.0,71,0.00,,,0.01,Wunderground v.1.15,2013-02-04 21:54:00,
2013-02-04 13:59:00,50.0,41.0,30.12,SSW,195,0.0,5.0,71,0.00,,,0.01,Wunderground v.1.15,2013-02-04 21:59:00,
2013-02-04 14:04:00,49.9,40.9,30.13,SSW,194,0.0,3.0,71,0.00,,,0.01,Wunderground v.1.15,2013-02-04 22:04:00,
2013-02-04 14:09:00,50.2,41.2,30.12,SSW,194,0.0,3.0,71,0.00,,,0.01,Wunderground v.1.15,2013-02-04 22:09:00,
2013-02-04 14:14:00,50.4,41.3,30.12,SSW,194,0.0,2.0,71,0.00,,,0.01,Wunderground v.1.15,2013-02-04 22:14:00,
2013-02-04 14:19:00,50.3,41.3,30.12,SSW,195,0.0,2.0,71,0.00,,,0.01,Wunderground v.1.15,2013-02-04 22:19:00,
2013-02-04 14:24:00,50.5,41.4,30.12,SSW,195,0.0,0.0,71,0.00,,,0.01,Wunderground v.1.15,2013-02-04 22:24:00,
2013-02-04 14:29:00,50.5,41.1,30.11,SSW,195,0.0,0.0,70,0.00,,,0.01,Wunderground v.1.15,2013-02-04 22:29:00,
2013-02-04 14:34:00,50.2,41.2,30.11,SSW,195,0.0,0.0,71,0.00,,,0.01,Wunderground v.1.15,2013-02-04 22:34:00,
2013-02-04 14:39:00,50.3,41.3,30.11,SSW,195,0.0,0.0,71,0.00,,,0.01,Wunderground v.1.15,2013-02-04 22:39:00,
2013-02-04 14:44:00,50.4,41.3,30.10,SSW,195,0.0,0.0,71,0.00,,,0.01,Wunderground v.1.15,2013-02-04 22:44:00,
2013-02-04 14:49:00,50.6,41.5,30.10,SSW,194,0.0,0.0,71,0.00,,,0.01,Wunderground v.1.15,2013-02-04 22:49:00,
2013-02-04 14:54:00,50.5,41.1,30.09,SSW,193,0.0,0.0,70,0.00,,,0.01,Wunderground v.1.15,2013-02-04 22:54:00,
2013-02-04 15:00:00,50.1,41.4,30.09,SSW,193,0.0,0.0,72,0.00,,,0.01,Wunderground v.1.15,2013-02-04 23:00:00,
2013-02-04 15:05:00,50.2,41.5,30.09,SSW,193,0.0,0.0,72,0.00,,,0.01,Wunderground v.1.15,2013-02-04 23:05:00,
2013-02-04 15:10:00,50.4,41.3,30.10,SSW,193,0.0,0.0,71,0.00,,,0.01,Wunderground v.1.15,2013-02-04 23:10:00,
2013-02-04 15:15:00,50.3,41.6,30.09,SSW,193,0.0,0.0,72,0.00,,,0.01,Wunderground v.1.15,2013-02-04 23:15:00,
2013-02-04 15:20:00,50.1,41.8,30.09,SSW,193,0.0,0.0,73,0.00,,,0.01,Wunderground v.1.15,2013-02-04 23:20:00,
2013-02-04 15:25:00,49.4,41.5,30.09,SSW,193,0.0,0.0,74,0.00,,,0.01,Wunderground v.1.15,2013-02-04 23:25:00,
2013-02-04 15:30:00,49.1,41.2,30.08,SSW,193,0.0,0.0,74,0.00,,,0.01,Wunderground v.1.15,2013-02-04 23:30:00,
2013-02-04 15:35:00,49.6,41.3,30.08,SSW,193,0.0,0.0,73,0.00,,,0.01,Wunderground v.1.15,2013-02-04 23:35:00,
2013-02-04 15:40:00,49.6,40.9,30.08,SSW,193,0.0,0.0,72,0.00,,,0.01,Wunderground v.1.15,2013-02-04 23:40:00,
2013-02-04 15:45:00,49.5,40.8,30.08,SSW,193,0.0,0.0,72,0.00,,,0.01,Wunderground v.1.15,2013-02-04 23:45:00,
2013-02-04 15:50:00,49.6,41.3,30.07,SSW,193,0.0,0.0,73,0.00,,,0.01,Wunderground v.1.15,2013-02-04 23:50:00,
2013-02-04 15:55:00,49.4,41.1,30.07,SSW,193,0.0,0.0,73,0.00,,,0.01,Wunderground v.1.15,2013-02-04 23:55:00,
2013-02-04 16:00:00,49.1,41.5,30.07,SSW,193,0.0,0.0,75,0.00,,,0.01,Wunderground v.1.15,2013-02-05 00:00:00,
2013-02-04 16:05:00,48.7,41.5,30.07,SSW,193,0.0,0.0,76,0.00,,,0.01,Wunderground v.1.15,2013-02-05 00:05:00,
2013-02-04 16:10:00,48.6,41.7,30.07,SSW,193,0.0,0.0,77,0.00,,,0.01,Wunderground v.1.15,2013-02-05 00:10:00,
2013-02-04 16:15:00,48.5,41.6,30.08,SSW,193,0.0,0.0,77,0.00,,,0.01,Wunderground v.1.15,2013-02-05 00:15:00,
2013-02-04 16:20:00,48.5,41.3,30.08,SSW,193,0.0,0.0,76,0.00,,,0.01,Wunderground v.1.15,2013-02-05 00:20:00,
2013-02-04 16:25:00,48.3,41.1,30.08,SSW,193,0.0,0.0,76,0.00,,,0.01,Wunderground v.1.15,2013-02-05 00:25:00,
2013-02-04 16:30:00,48.2,41.0,30.08,SSW,193,0.0,0.0,76,0.00,,,0.01,Wunderground v.1.15,2013-02-05 00:30:00,
2013-02-04 16:35:00,48.3,41.4,30.08,SSW,194,0.0,0.0,77,0.00,,,0.01,Wunderground v.1.15,2013-02-05 00:35:00,
2013-02-04 16:40:00,48.5,41.6,30.08,SSW,194,0.0,0.0,77,0.00,,,0.01,Wunderground v.1.15,2013-02-05 00:40:00,
2013-02-04 16:45:00,48.6,41.7,30.07,SSW,194,0.0,0.0,77,0.00,,,0.01,Wunderground v.1.15,2013-02-05 00:45:00,
2013-02-04 16:50:00,48.7,41.8,30.07,SSW,194,0.0,0.0,77,0.00,,,0.01,Wunderground v.1.15,2013-02-05 00:50:00,
2013-02-04 16:55:00,48.7,41.8,30.07,SSW,194,0.0,0.0,77,0.00,,,0.01,Wunderground v.1.15,2013-02-05 00:55:00,
2013-02-04 17:00:00,48.5,41.6,30.07,SSW,194,0.0,0.0,77,0.00,,,0.01,Wunderground v.1.15,2013-02-05 01:00:00,
2013-02-04 17:05:00,48.4,41.9,30.07,SSW,194,0.0,0.0,78,0.00,,,0.01,Wunderground v.1.15,2013-02-05 01:05:00,
2013-02-04 17:10:00,48.2,41.7,30.07,SSW,194,0.0,0.0,78,0.00,,,0.01,Wunderground v.1.15,2013-02-05 01:10:00,
2013-02-04 17:15:00,48.1,41.9,30.08,SSW,194,0.0,0.0,79,0.00,,,0.01,Wunderground v.1.15,2013-02-05 01:15:00,
2013-02-04 17:20:00,48.0,41.8,30.08,SSW,194,0.0,0.0,79,0.00,,,0.01,Wunderground v.1.15,2013-02-05 01:20:00,
2013-02-04 17:25:00,47.9,41.7,30.07,SSW,194,0.0,0.0,79,0.00,,,0.01,Wunderground v.1.15,2013-02-05 01:25:00,
2013-02-04 17:30:00,47.8,41.9,30.07,SSW,194,0.0,0.0,80,0.00,,,0.01,Wunderground v.1.15,2013-02-05 01:30:00,
2013-02-04 17:35:00,47.6,41.7,30.07,SSW,194,0.0,0.0,80,0.00,,,0.01,Wunderground v.1.15,2013-02-05 01:35:00,
2013-02-04 17:40:00,47.5,41.3,30.07,SSW,194,0.0,0.0,79,0.00,,,0.01,Wunderground v.1.15,2013-02-05 01:40:00,
2013-02-04 17:45:00,47.4,41.2,30.07,SSW,194,0.0,0.0,79,0.00,,,0.01,Wunderground v.1.15,2013-02-05 01:45:00,
2013-02-04 17:50:00,47.3,41.1,30.07,SSW,194,0.0,0.0,79,0.00,,,0.01,Wunderground v.1.15,2013-02-05 01:50:00,
2013-02-04 17:55:00,47.2,41.3,30.07,SSW,194,0.0,0.0,80,0.00,,,0.01,Wunderground v.1.15,2013-02-05 01:55:00,
2013-02-04 18:00:00,47.2,41.3,30.06,SSW,194,0.0,0.0,80,0.00,,,0.01,Wunderground v.1.15,2013-02-05 02:00:00,
2013-02-04 18:05:00,47.1,41.2,30.07,SSW,194,0.0,0.0,80,0.00,,,0.01,Wunderground v.1.15,2013-02-05 02:05:00,
2013-02-04 18:10:00,47.0,41.5,30.07,SSW,194,0.0,0.0,81,0.00,,,0.01,Wunderground v.1.15,2013-02-05 02:10:00,
2013-02-04 18:15:00,47.0,41.5,30.07,SSW,194,0.0,0.0,81,0.00,,,0.01,Wunderground v.1.15,2013-02-05 02:15:00,
2013-02-04 18:20:00,46.9,41.4,30.07,SSW,194,0.0,0.0,81,0.00,,,0.01,Wunderground v.1.15,2013-02-05 02:20:00,
2013-02-04 18:25:00,46.8,41.6,30.07,SSW,194,0.0,0.0,82,0.00,,,0.01,Wunderground v.1.15,2013-02-05 02:25:00,
2013-02-04 18:30:00,46.8,41.6,30.06,SSW,194,0.0,0.0,82,0.00,,,0.01,Wunderground v.1.15,2013-02-05 02:30:00,
2013-02-04 18:35:00,46.8,41.9,30.06,SSW,194,0.0,0.0,83,0.00,,,0.01,Wunderground v.1.15,2013-02-05 02:35:00,
2013-02-04 18:40:00,46.8,41.9,30.06,SSW,194,0.0,0.0,83,0.00,,,0.01,Wunderground v.1.15,2013-02-05 02:40:00,
2013-02-04 18:45:00,46.8,41.9,30.05,SSW,194,0.0,0.0,83,0.00,,,0.01,Wunderground v.1.15,2013-02-05 02:45:00,
2013-02-04 18:50:00,46.8,41.9,30.04,SSW,193,0.0,0.0,83,0.00,,,0.01,Wunderground v.1.15,2013-02-05 02:50:00,
2013-02-04 18:55:00,46.7,41.8,30.04,South,186,1.0,2.0,83,0.00,,,0.01,Wunderground v.1.15,2013-02-05 02:55:00,
2013-02-04 19:00:00,46.7,41.8,30.03,South,175,2.0,2.0,83,0.00,,,0.01,Wunderground v.1.15,2013-02-05 03:00:00,
2013-02-04 19:05:00,46.8,41.9,30.02,SSE,151,0.0,5.0,83,0.00,,,0.01,Wunderground v.1.15,2013-02-05 03:05:00,
2013-02-04 19:10:00,46.9,42.0,30.02,SSE,151,0.0,2.0,83,0.00,,,0.01,Wunderground v.1.15,2013-02-05 03:10:00,
2013-02-04 19:15:00,46.8,42.2,30.02,SSE,151,0.0,2.0,84,0.00,,,0.01,Wunderground v.1.15,2013-02-05 03:15:00,
2013-02-04 19:20:00,46.8,42.2,30.02,SSE,151,0.0,0.0,84,0.00,,,0.01,Wunderground v.1.15,2013-02-05 03:20:00,
2013-02-04 19:25:00,46.7,42.1,30.01,SSE,151,0.0,0.0,84,0.00,,,0.01,Wunderground v.1.15,2013-02-05 03:25:00,
2013-02-04 19:30:00,46.7,42.1,30.01,SSE,151,0.0,0.0,84,0.00,,,0.01,Wunderground v.1.15,2013-02-05 03:30:00,
2013-02-04 19:35:00,46.7,42.1,30.00,SSE,151,0.0,0.0,84,0.00,,,0.01,Wunderground v.1.15,2013-02-05 03:35:00,
2013-02-04 19:40:00,46.6,42.0,30.00,SSE,151,0.0,0.0,84,0.00,,,0.01,Wunderground v.1.15,2013-02-05 03:40:00,
2013-02-04 19:46:00,46.6,42.0,29.99,SSE,151,0.0,2.0,84,0.00,,,0.01,Wunderground v.1.15,2013-02-05 03:46:00,
2013-02-04 19:51:00,46.6,42.0,29.99,SSE,151,0.0,1.0,84,0.00,,,0.01,Wunderground v.1.15,2013-02-05 03:51:00,
2013-02-04 19:56:00,46.6,42.0,29.99,SSE,151,0.0,1.0,84,0.00,,,0.01,Wunderground v.1.15,2013-02-05 03:56:00,
2013-02-04 20:01:00,46.6,42.0,29.99,SSE,151,0.0,0.0,84,0.00,,,0.01,Wunderground v.1.15,2013-02-05 04:01:00,
2013-02-04 20:06:00,46.6,42.0,29.98,SSE,151,0.0,0.0,84,0.00,,,0.01,Wunderground v.1.15,2013-02-05 04:06:00,
2013-02-04 20:11:00,46.6,42.0,29.97,SSE,151,0.0,0.0,84,0.00,,,0.01,Wunderground v.1.15,2013-02-05 04:11:00,
2013-02-04 20:16:00,46.6,42.0,29.97,SSE,151,0.0,0.0,84,0.00,,,0.01,Wunderground v.1.15,2013-02-05 04:16:00,
2013-02-04 20:21:00,46.5,42.2,29.97,SSE,151,0.0,0.0,85,0.00,,,0.01,Wunderground v.1.15,2013-02-05 04:21:00,
2013-02-04 20:26:00,46.5,42.2,29.96,SSE,151,0.0,0.0,85,0.00,,,0.01,Wunderground v.1.15,2013-02-05 04:26:00,
2013-02-04 20:31:00,46.3,42.0,29.96,SSE,151,0.0,0.0,85,0.00,,,0.01,Wunderground v.1.15,2013-02-05 04:31:00,
2013-02-04 20:36:00,46.2,41.9,29.95,SSE,151,0.0,0.0,85,0.00,,,0.01,Wunderground v.1.15,2013-02-05 04:36:00,
2013-02-04 20:41:00,46.1,42.1,29.95,SSE,151,0.0,0.0,86,0.00,,,0.01,Wunderground v.1.15,2013-02-05 04:41:00,
2013-02-04 20:46:00,46.0,42.0,29.96,SSE,151,0.0,3.0,86,0.00,,,0.01,Wunderground v.1.15,2013-02-05 04:46:00,
2013-02-04 20:51:00,45.9,41.9,29.96,SSE,155,1.0,3.0,86,0.00,,,0.01,Wunderground v.1.15,2013-02-05 04:51:00,
2013-02-04 20:56:00,45.9,42.2,29.97,South,188,4.0,6.0,87,0.00,,,0.01,Wunderground v.1.15,2013-02-05 04:56:00,
2013-02-04 21:00:00,45.9,42.2,29.97,SSW,192,3.0,4.0,87,0.00,,,0.01,Wunderground v.1.15,2013-02-05 05:00:00,
2013-02-04 21:01:00,46.0,42.3,29.97,SSW,193,4.0,4.0,87,0.00,,,0.01,Wunderground v.1.15,2013-02-05 05:01:00,
2013-02-04 21:06:00,46.1,42.4,29.97,West,275,9.0,12.0,87,0.00,,,0.01,Wunderground v.1.15,2013-02-05 05:06:00,
2013-02-04 21:11:00,46.4,42.4,29.97,WNW,293,3.0,5.0,86,0.00,,,0.01,Wunderground v.1.15,2013-02-05 05:11:00,
2013-02-04 21:16:00,46.5,42.5,29.97,WNW,294,0.0,6.0,86,0.00,,,0.01,Wunderground v.1.15,2013-02-05 05:16:00,
2013-02-04 21:21:00,46.6,42.6,29.97,WNW,292,0.0,3.0,86,0.00,,,0.01,Wunderground v.1.15,2013-02-05 05:21:00,
2013-02-04 21:26:00,46.6,42.6,29.97,WNW,292,0.0,3.0,86,0.00,,,0.01,Wunderground v.1.15,2013-02-05 05:26:00,
2013-02-04 21:31:00,46.6,42.6,29.97,WNW,292,0.0,0.0,86,0.00,,,0.01,Wunderground v.1.15,2013-02-05 05:31:00,
2013-02-04 21:36:00,46.6,42.6,29.96,WNW,292,0.0,0.0,86,0.00,,,0.01,Wunderground v.1.15,2013-02-05 05:36:00,
2013-02-04 21:41:00,46.6,42.6,29.96,WNW,292,0.0,0.0,86,0.00,,,0.01,Wunderground v.1.15,2013-02-05 05:41:00,
2013-02-04 21:47:00,46.6,42.3,29.96,WNW,292,1.0,4.0,85,0.00,,,0.01,Wunderground v.1.15,2013-02-05 05:47:00,
2013-02-04 21:52:00,46.6,42.3,29.96,WNW,292,3.0,5.0,85,0.00,,,0.01,Wunderground v.1.15,2013-02-05 05:52:00,
2013-02-04 21:57:00,46.7,42.4,29.96,WNW,290,2.0,5.0,85,0.00,,,0.01,Wunderground v.1.15,2013-02-05 05:57:00,
2013-02-04 22:02:00,46.7,42.4,29.97,WNW,287,1.0,5.0,85,0.00,,,0.01,Wunderground v.1.15,2013-02-05 06:02:00,
2013-02-04 22:07:00,46.7,42.4,29.97,WNW,286,0.0,5.0,85,0.00,,,0.01,Wunderground v.1.15,2013-02-05 06:07:00,
2013-02-04 22:12:00,46.8,42.5,29.97,WNW,286,0.0,1.0,85,0.00,,,0.01,Wunderground v.1.15,2013-02-05 06:12:00,
2013-02-04 22:17:00,46.7,42.4,29.97,WNW,286,0.0,1.0,85,0.00,,,0.01,Wunderground v.1.15,2013-02-05 06:17:00,
2013-02-04 22:22:00,46.7,42.4,29.96,WNW,286,0.0,0.0,85,0.00,,,0.01,Wunderground v.1.15,2013-02-05 06:22:00,
2013-02-04 22:27:00,46.7,42.1,29.96,WNW,286,0.0,0.0,84,0.00,,,0.01,Wunderground v.1.15,2013-02-05 06:27:00,
2013-02-04 22:32:00,46.6,42.3,29.95,WNW,286,0.0,0.0,85,0.00,,,0.01,Wunderground v.1.15,2013-02-05 06:32:00,
2013-02-04 22:37:00,46.5,42.5,29.95,West,279,0.0,0.0,86,0.00,,,0.01,Wunderground v.1.15,2013-02-05 06:37:00,
2013-02-04 22:42:00,46.3,42.3,29.96,West,279,0.0,0.0,86,0.00,,,0.01,Wunderground v.1.15,2013-02-05 06:42:00,
2013-02-04 22:47:00,46.3,42.3,29.96,West,279,0.0,0.0,86,0.00,,,0.01,Wunderground v.1.15,2013-02-05 06:47:00,
2013-02-04 22:52:00,46.1,42.4,29.96,West,279,0.0,0.0,87,0.00,,,0.01,Wunderground v.1.15,2013-02-05 06:52:00,
2013-02-04 22:57:00,46.0,42.3,29.96,West,279,0.0,0.0,87,0.00,,,0.01,Wunderground v.1.15,2013-02-05 06:57:00,
2013-02-04 23:02:00,45.8,42.2,29.96,West,278,1.0,1.0,87,0.00,,,0.01,Wunderground v.1.15,2013-02-05 07:02:00,
2013-02-04 23:07:00,45.6,42.0,29.96,West,276,0.0,2.0,87,0.00,,,0.01,Wunderground v.1.15,2013-02-05 07:07:00,
2013-02-04 23:12:00,45.5,41.9,29.96,West,276,0.0,0.0,87,0.00,,,0.01,Wunderground v.1.15,2013-02-05 07:12:00,
2013-02-04 23:17:00,45.4,41.8,29.96,West,276,0.0,0.0,87,0.00,,,0.01,Wunderground v.1.15,2013-02-05 07:17:00,
2013-02-04 23:22:00,45.2,41.9,29.96,West,273,1.0,4.0,88,0.00,,,0.01,Wunderground v.1.15,2013-02-05 07:22:00,
2013-02-04 23:27:00,45.0,41.7,29.96,West,271,2.0,4.0,88,0.00,,,0.01,Wunderground v.1.15,2013-02-05 07:27:00,
2013-02-04 23:32:00,45.0,41.7,29.96,West,263,3.0,5.0,88,0.00,,,0.01,Wunderground v.1.15,2013-02-05 07:32:00,
2013-02-04 23:37:00,45.0,41.7,29.96,WSW,254,5.0,6.0,88,0.00,,,0.01,Wunderground v.1.15,2013-02-05 07:37:00,
2013-02-04 23:43:00,45.0,42.0,29.96,SW,236,3.0,7.0,89,0.00,,,0.01,Wunderground v.1.15,2013-02-05 07:43:00,
2013-02-04 23:48:00,45.0,42.0,29.96,SW,231,1.0,7.0,89,0.00,,,0.01,Wunderground v.1.15,2013-02-05 07:48:00,
2013-02-04 23:53:00,45.1,42.1,29.97,SW,227,1.0,5.0,89,0.00,,,0.01,Wunderground v.1.15,2013-02-05 07:53:00,
2013-02-04 23:58:00,45.2,42.2,29.96,SW,225,1.0,7.0,89,0.00,,,0.01,Wunderground v.1.15,2013-02-05 07:58:00,